Miscellaneous Local Product
Issued by NWS Hastings, NE

Home | Current Version | Previous Version | Graphics & Text | Print | Product List | Glossary On
Versions: 1 2 3 4 5 6 7 8 9 10 11 12 13 14 15 16 17 18 19 20 21 22 23 24 25 26 27 28 29 30 31 32 33 34 35 36 37 38 39 40 41 42 43 44 45 46 47 48 49 50
000
AXUS43 KGID 201602
MISGRI

GID CWA HOURLY WEATHER ROUNDUP
NATIONAL WEATHER SERVICE HASTINGS NE
1100 AM CDT WED SEP 20 2017

NOTE: "FAIR" INDICATES FEW OR NO CLOUDS BELOW 12,000 FEET WITH NO
SIGNIFICANT WEATHER AND/OR OBSTRUCTIONS TO VISIBILITY.

...SOUTH CENTRAL NEBRASKA...

CITY           SKY/WX    TMP DP  RH WIND       PRES   REMARKS
GRAND ISLAND   SUNNY     68  47  46 N12       29.91R
HASTINGS       SUNNY     68  45  43 N8        29.91R
KEARNEY        SUNNY     66  46  48 N12       29.93R
ORD            SUNNY     66  43  43 NW9       29.90R
YORK           SUNNY     68  50  52 N9        29.88S
AURORA         SUNNY     67  49  52 NW9       29.89S
LEXINGTON      SUNNY     65  42  44 NW7       29.94S
HOLDREGE       SUNNY     65  44  46 NW7       29.93S
HEBRON         SUNNY     72  51  47 N10       29.87R

...NEBRASKA PANHANDLE...

CITY           SKY/WX    TMP DP  RH WIND       PRES   REMARKS
CHADRON        SUNNY     62  21  20 SW17      29.90R
ALLIANCE       CLOUDY    62  25  24 W18       29.94R
SCOTTSBLUFF    SUNNY     61  29  29 NW16      29.94R
SIDNEY         CLOUDY    61  27  27 W7        29.99R

...WESTERN AND NORTH CENTRAL NEBRASKA...

CITY           SKY/WX    TMP DP  RH WIND       PRES   REMARKS
VALENTINE      SUNNY     65  35  33 W15       29.90R
AINSWORTH      SUNNY     63  44  49 SW12      29.91S
ONEILL         SUNNY     63  46  54 W6        29.90S
BROKEN BOW     SUNNY     65  44  46 W7        29.92S
IMPERIAL       SUNNY     65  29  25 NW13      29.98F
NORTH PLATTE   SUNNY     65  40  39 W13       29.96R
MCCOOK         SUNNY     69  36  29 NW10      29.96R

...EASTERN NEBRASKA...

CITY           SKY/WX    TMP DP  RH WIND       PRES   REMARKS
NORFOLK        SUNNY     65  50  58 W9        29.88R
SO SIOUX CITY  SUNNY     65  54  67 NW12      29.85R
TEKAMAH        SUNNY     72  54  53 NW10      29.82R
COLUMBUS       SUNNY     68  50  52 NW10      29.88R
ALBION         SUNNY     66  50  56 NW8       29.90R
OMAHA EPPLEY   SUNNY     73  55  53 N20       29.80R
OFFUTT AFB     SUNNY     73  54  50 N13G20    29.80R
MILLARD        SUNNY     73  56  55 N10G17    29.81S
LINCOLN        SUNNY     74  51  44 N15       29.84R
NEBRASKA CITY  CLOUDY    72  64  73 N8        29.79R
BEATRICE       SUNNY     76  53  46 N13G20    29.83R
FALLS CITY     MOSUNNY   82  69  64 W13       29.76S

...NORTHERN KANSAS...

CITY           SKY/WX    TMP DP  RH WIND       PRES   REMARKS
GOODLAND       SUNNY     66  27  23 N12       29.99S
HILL CITY      SUNNY     70  43  37 N13       29.95S
NORTON         SUNNY     68  34  28 NW9       29.94
PHILLIPSBURG   SUNNY     72  39  30 N8        29.92F
SMITH CENTER   SUNNY     70  45  40 NW17G23   29.91R
HAYS           SUNNY     71  44  37 N16       29.91R
RUSSELL        SUNNY     73  44  35 N18       29.87S
CONCORDIA      SUNNY     73  52  47 N17       29.84R
SALINA         SUNNY     75  53  46 NW13      29.83R
TOPEKA         MOSUNNY   82  71  69 S12G21    29.78R



USA.gov is the U.S. government's official web portal to all federal, state and local government web resources and services.